Weather History for Warsaw, IN

Change the Weather History Date:

Thursday, November 10, 2011

  Actual Average Record
Temperature  
Mean Temperature 36 °F -  
Max Temperature 41 °F 51 °F 69 °F (1949)
Min Temperature 32 °F 34 °F 16 °F (1957)
Degree Days  
Heating Degree Days 28    
Moisture  
Dew Point 31 °F    
Average Humidity 81    
Maximum Humidity 100    
Minimum Humidity 61    
Precipitation  
Precipitation 0.01 in - - ()
Sea Level Pressure  
Sea Level Pressure 29.97 in    
Wind  
Wind Speed 11 mph (WSW)    
Max Wind Speed 21 mph    
Max Gust Speed 26 mph    
Visibility 9 miles    
Events Snow    
Averages and records for this station are not official NWS values.
T = Trace of Precipitation, MM = Missing Value Source: NWS Daily Summary

Daily Weather History Graph

Daily Weather History Graph

Search for Another Location

Airport:

Trip Planner

Search our weather history database for the weather conditions in past years. The results will help you decide how hot, cold, wet, or windy it might be!

Date:

Astronomy

Nov. 10, 2011 Rise Set
Actual Time 7:25 AM EST 5:28 PM EST
Civil Twilight 6:55 AM EST 5:58 PM EST
Nautical Twilight 6:22 AM EST 6:31 PM EST
Astronomical Twilight 5:50 AM EST 7:03 PM EST
Moon 5:15 PM EST (11/10) 7:17 AM EST (11/10)
Length of Visible Light 11h 02m
Length of Day
10h 03m
Full, 100% of the Moon is Illuminated
Nov 10
Full
Nov 10
Full
Nov 18
Last Quarter
Nov 25
New
Dec 2
First Quarter

Hourly Weather History & Observations

Time (EST) Temp. Windchill Dew Point Humidity Pressure Visibility Wind Dir Wind Speed Gust Speed Precip Events Conditions
12:15 AM 39.2 °F 31.6 °F 32.0 °F 75% 29.98 in 10.0 mi West 12.7 mph 20.7 mph N/A   Overcast
12:35 AM 37.4 °F 29.8 °F 32.0 °F 81% 29.99 in 10.0 mi West 11.5 mph - N/A   Overcast
12:55 AM 37.4 °F 29.8 °F 32.0 °F 81% 29.99 in 10.0 mi WSW 11.5 mph - N/A   Scattered Clouds
1:15 AM 35.6 °F 28.0 °F 32.0 °F 87% 29.99 in 10.0 mi WSW 10.4 mph - N/A   Clear
1:35 AM 35.6 °F 28.6 °F 32.0 °F 87% 29.99 in 10.0 mi WSW 9.2 mph - N/A   Clear
1:55 AM 35.6 °F 29.2 °F 32.0 °F 87% 29.99 in 10.0 mi WSW 8.1 mph - N/A   Clear
2:15 AM 35.6 °F 29.2 °F 32.0 °F 87% 29.99 in 10.0 mi SW 8.1 mph - N/A   Clear
2:35 AM 35.6 °F 29.2 °F 32.0 °F 87% 29.99 in 10.0 mi SW 8.1 mph - N/A   Clear
2:55 AM 35.6 °F 29.2 °F 32.0 °F 87% 29.98 in 10.0 mi SW 8.1 mph - N/A   Clear
3:15 AM 35.6 °F 29.9 °F 32.0 °F 87% 29.98 in 10.0 mi SW 6.9 mph - N/A   Clear
3:35 AM 35.6 °F 29.9 °F 32.0 °F 87% 29.98 in 10.0 mi WSW 6.9 mph - N/A   Clear
3:55 AM 33.8 °F 27.0 °F 32.0 °F 93% 29.98 in 10.0 mi WSW 8.1 mph - N/A   Clear
4:15 AM 33.8 °F 27.7 °F 32.0 °F 93% 29.97 in 10.0 mi WSW 6.9 mph - N/A   Clear
4:35 AM 33.8 °F 28.6 °F 32.0 °F 93% 29.97 in 10.0 mi WSW 5.8 mph - N/A   Clear
4:55 AM 33.8 °F 28.6 °F 33.8 °F 100% 29.96 in 10.0 mi SW 5.8 mph - N/A   Clear
5:15 AM 33.8 °F 28.6 °F 32.0 °F 93% 29.96 in 10.0 mi SW 5.8 mph - N/A   Clear
5:55 AM 33.8 °F 27.0 °F 33.8 °F 100% 29.96 in 10.0 mi SW 8.1 mph - N/A   Clear
6:15 AM 33.8 °F 27.7 °F 32.0 °F 93% 29.96 in 10.0 mi WSW 6.9 mph - N/A   Clear
6:35 AM 33.8 °F 27.0 °F 32.0 °F 93% 29.96 in 10.0 mi WSW 8.1 mph - N/A   Clear
7:15 AM 32.0 °F 22.5 °F 32.0 °F 100% 29.97 in 10.0 mi WSW 12.7 mph - N/A   Clear
7:55 AM 32.0 °F 23.0 °F 30.2 °F 93% 29.98 in 10.0 mi WSW 11.5 mph - N/A   Clear
8:15 AM 33.8 °F 26.4 °F 30.2 °F 87% 29.99 in 10.0 mi WSW 9.2 mph - N/A   Clear
8:35 AM 33.8 °F 25.3 °F 30.2 °F 87% 29.99 in 10.0 mi WSW 11.5 mph 18.4 mph N/A   Clear
8:55 AM 33.8 °F 24.8 °F 30.2 °F 87% 29.99 in 10.0 mi WSW 12.7 mph 17.3 mph N/A   Clear
9:15 AM 35.6 °F 28.0 °F 30.2 °F 81% 29.99 in 10.0 mi WSW 10.4 mph - N/A   Clear
9:35 AM 35.6 °F 27.1 °F 30.2 °F 81% 29.99 in 10.0 mi WSW 12.7 mph - N/A   Clear
9:55 AM 35.6 °F 28.0 °F 30.2 °F 81% 29.99 in 10.0 mi WSW 10.4 mph 17.3 mph N/A   Scattered Clouds
10:15 AM 35.6 °F 27.1 °F 30.2 °F 81% 29.98 in 10.0 mi West 12.7 mph 18.4 mph N/A   Overcast
10:35 AM 37.4 °F 29.8 °F 30.2 °F 75% 29.98 in 10.0 mi West 11.5 mph - N/A   Overcast
10:55 AM 39.2 °F 33.0 °F 30.2 °F 70% 29.98 in 10.0 mi WSW 9.2 mph - N/A   Mostly Cloudy
11:15 AM 41.0 °F 34.7 °F 30.2 °F 65% 29.97 in 10.0 mi WSW 10.4 mph 16.1 mph N/A   Clear
11:35 AM 41.0 °F 33.9 °F 28.4 °F 61% 29.97 in 10.0 mi SW 12.7 mph 19.6 mph N/A   Scattered Clouds
11:55 AM 41.0 °F 33.9 °F 30.2 °F 65% 29.96 in 10.0 mi WSW 12.7 mph 19.6 mph N/A   Scattered Clouds
12:15 PM 39.2 °F 30.8 °F 30.2 °F 70% 29.96 in 10.0 mi WSW 15.0 mph 20.7 mph N/A   Mostly Cloudy
12:35 PM 39.2 °F 30.5 °F 30.2 °F 70% 29.96 in 10.0 mi WSW 16.1 mph - N/A   Overcast
12:55 PM 39.2 °F 31.2 °F 30.2 °F 70% 29.95 in 10.0 mi WSW 13.8 mph 18.4 mph N/A   Overcast
1:15 PM 41.0 °F 33.5 °F 30.2 °F 65% 29.95 in 10.0 mi WSW 13.8 mph 21.9 mph N/A   Overcast
1:35 PM 37.4 °F 26.9 °F 28.4 °F 70% 29.95 in 10.0 mi WSW 20.7 mph 26.5 mph N/A   Overcast
1:55 PM 37.4 °F 28.5 °F 30.2 °F 75% 29.95 in 10.0 mi WSW 15.0 mph 23.0 mph N/A   Overcast
2:15 PM 37.4 °F 29.8 °F 32.0 °F 81% 29.95 in 10.0 mi WSW 11.5 mph 19.6 mph N/A   Overcast
2:35 PM 37.4 °F 27.8 °F 30.2 °F 75% 29.95 in 10.0 mi WSW 17.3 mph 21.9 mph N/A   Overcast
2:55 PM 37.4 °F 28.2 °F 28.4 °F 70% 29.95 in 10.0 mi West 16.1 mph - N/A   Overcast
3:15 PM 37.4 °F 27.8 °F 28.4 °F 70% 29.95 in 10.0 mi West 17.3 mph 21.9 mph N/A   Mostly Cloudy
3:35 PM 37.4 °F 27.5 °F 28.4 °F 70% 29.95 in 10.0 mi West 18.4 mph 23.0 mph N/A   Overcast
3:55 PM 37.4 °F 29.3 °F 28.4 °F 70% 29.95 in 10.0 mi West 12.7 mph 21.9 mph N/A   Overcast
4:15 PM 37.4 °F 29.3 °F 28.4 °F 70% 29.95 in 10.0 mi WSW 12.7 mph 18.4 mph N/A   Mostly Cloudy
4:35 PM 37.4 °F 29.8 °F 28.4 °F 70% 29.96 in 10.0 mi West 11.5 mph - N/A   Mostly Cloudy
4:55 PM 35.6 °F 27.5 °F 28.4 °F 75% 29.96 in 10.0 mi West 11.5 mph - N/A   Mostly Cloudy
5:35 PM 35.6 °F 29.2 °F 30.2 °F 81% 29.97 in 10.0 mi WSW 8.1 mph - N/A   Mostly Cloudy
5:55 PM 35.6 °F 28.6 °F 30.2 °F 81% 29.97 in 10.0 mi WSW 9.2 mph - N/A   Overcast
6:15 PM 35.6 °F 27.5 °F 30.2 °F 81% 29.97 in 10.0 mi WSW 11.5 mph 16.1 mph N/A   Overcast
6:35 PM 35.6 °F 28.0 °F 30.2 °F 81% 29.97 in 10.0 mi WSW 10.4 mph - N/A   Overcast
6:55 PM 33.8 °F 25.3 °F 30.2 °F 87% 29.97 in 10.0 mi WSW 11.5 mph - N/A   Mostly Cloudy
7:15 PM 33.8 °F 24.8 °F 32.0 °F 93% 29.97 in 5.0 mi West 12.7 mph 23.0 mph N/A Snow Light Snow
7:35 PM 32.0 °F 24.2 °F 32.0 °F 100% 29.98 in 1.8 mi West 9.2 mph - N/A Snow Light Snow
7:55 PM 33.8 °F 25.8 °F - N/A% 29.97 in 10.0 mi West 10.4 mph - N/A   Overcast
8:15 PM 33.8 °F 25.8 °F - N/A% 29.97 in 4.0 mi WSW 10.4 mph - N/A Snow Light Snow
8:35 PM 32.0 °F 22.1 °F - N/A% 29.96 in 1.0 mi WSW 13.8 mph 18.4 mph N/A Snow Light Snow
8:55 PM 32.0 °F 22.5 °F - N/A% 29.96 in 7.0 mi West 12.7 mph - N/A Snow Light Snow
9:15 PM 33.8 °F 24.3 °F - N/A% 29.97 in 7.0 mi West 13.8 mph - 0.01 in   Overcast
9:35 PM 33.8 °F 24.8 °F - N/A% 29.97 in 10.0 mi West 12.7 mph - 0.01 in   Overcast
9:55 PM 33.8 °F 24.8 °F - N/A% 29.98 in 1.5 mi West 12.7 mph 18.4 mph 0.01 in Snow Light Snow
10:15 PM 32.0 °F 23.6 °F - N/A% 29.98 in 2.0 mi West 10.4 mph - 0.01 in Snow Light Snow
10:35 PM 33.8 °F 25.3 °F - N/A% 29.98 in 7.0 mi West 11.5 mph - 0.01 in   Overcast
10:55 PM 33.8 °F 25.3 °F - N/A% 29.98 in 10.0 mi West 11.5 mph 19.6 mph 0.02 in   Overcast
11:15 PM 33.8 °F 24.3 °F - N/A% 29.98 in 10.0 mi West 13.8 mph 20.7 mph N/A   Overcast
11:35 PM 33.8 °F 24.3 °F - N/A% 29.98 in 10.0 mi West 13.8 mph 19.6 mph N/A   Overcast
11:55 PM 33.8 °F 25.3 °F 33.8 °F 100% 29.98 in 10.0 mi West 11.5 mph - N/A   Overcast